Location: DARK SKY Beskydy - Park tmavé oblohy, www.darkskybeskydy.cz
(49.4926°N, 18.5016°E)
Time: 03:46:06
(UTC+02:00)

A-11 Canister half - Pass Details

Date: 24 February 2024
Orbit: 1513 x 1686 km, 47.2° (Epoch: 24 April)

Event Time Altitude Azimuth Distance (km) Brightness Sun altitude
Rises 10:08:23 0° 285° (WNW) 4,829 11.2 26.1°
Reaches altitude 10° 10:14:17 10° 258° (WSW) 3,793 11.0 26.6°
Maximum altitude 10:17:25 12° 238° (WSW) 3,608 11.1 26.9°
Drops below altitude 10° 10:20:31 10° 218° (SW) 3,742 11.4 27.1°
Sets 10:26:18 0° 190° (S) 4,684 12.3 27.5°
